TimeMDT,TemperatureF,Dew PointF,Humidity,Sea Level PressureIn,VisibilityMPH,Wind Direction,Wind SpeedMPH,Gust SpeedMPH,PrecipitationIn,Events,Conditions,WindDirDegrees,DateUTC
12:53 AM,18.0,12.0,78,30.12,10.0,Calm,Calm,-,N/A,,Clear,0,2013-03-26 06:53:00
1:53 AM,19.0,12.0,74,30.10,10.0,Calm,Calm,-,N/A,,Clear,0,2013-03-26 07:53:00
2:53 AM,18.0,12.0,78,30.08,10.0,Calm,Calm,-,N/A,,Clear,0,2013-03-26 08:53:00
3:53 AM,16.0,10.9,81,30.07,10.0,South,4.6,-,N/A,,Clear,180,2013-03-26 09:53:00
4:53 AM,16.0,10.0,77,30.06,10.0,Calm,Calm,-,N/A,,Clear,0,2013-03-26 10:53:00
5:53 AM,17.1,10.0,74,30.06,10.0,Calm,Calm,-,N/A,,Clear,0,2013-03-26 11:53:00
6:53 AM,17.1,10.9,77,30.07,10.0,Calm,Calm,-,N/A,,Clear,0,2013-03-26 12:53:00
7:53 AM,19.9,12.0,71,30.09,10.0,Calm,Calm,-,N/A,,Clear,0,2013-03-26 13:53:00
8:53 AM,24.1,16.0,71,30.09,10.0,Calm,Calm,-,N/A,,Clear,0,2013-03-26 14:53:00
9:53 AM,33.1,19.0,56,30.08,10.0,Calm,Calm,-,N/A,,Partly Cloudy,0,2013-03-26 15:53:00
10:53 AM,41.0,12.9,32,30.07,10.0,Calm,Calm,-,N/A,,Clear,0,2013-03-26 16:53:00
11:53 AM,46.9,5.0,18,30.04,10.0,North,4.6,-,N/A,,Clear,350,2013-03-26 17:53:00
12:53 PM,48.9,3.9,16,30.02,10.0,NW,9.2,-,N/A,,Clear,320,2013-03-26 18:53:00
1:53 PM,50.0,3.9,15,30.01,10.0,Variable,5.8,-,N/A,,Clear,0,2013-03-26 19:53:00
2:53 PM,50.0,6.1,17,30.01,10.0,SSE,3.5,-,N/A,,Clear,150,2013-03-26 20:53:00
3:53 PM,52.0,8.1,17,30.00,10.0,NNE,8.1,-,N/A,,Clear,20,2013-03-26 21:53:00
4:53 PM,51.1,8.1,18,30.00,10.0,North,8.1,-,N/A,,Clear,350,2013-03-26 22:53:00
5:53 PM,51.1,12.0,21,30.01,10.0,NW,10.4,-,N/A,,Clear,320,2013-03-26 23:53:00
6:53 PM,46.0,16.0,30,30.03,10.0,NW,5.8,-,N/A,,Partly Cloudy,310,2013-03-27 00:53:00
7:53 PM,32.0,18.0,56,30.07,10.0,Calm,Calm,-,N/A,,Clear,0,2013-03-27 01:53:00
8:53 PM,28.9,17.1,61,30.09,10.0,SSW,3.5,-,N/A,,Clear,200,2013-03-27 02:53:00
9:53 PM,28.9,17.1,61,30.08,10.0,Calm,Calm,-,N/A,,Partly Cloudy,0,2013-03-27 03:53:00
10:53 PM,30.9,16.0,54,30.06,10.0,Calm,Calm,-,N/A,,Clear,0,2013-03-27 04:53:00
11:53 PM,27.0,16.0,63,30.06,10.0,Calm,Calm,-,N/A,,Clear,0,2013-03-27 05:53:00